Location: Pedimozza
(42.0500°N, 9.3500°E)
Time: 00:44:55
(UTC+00:00)

TSX-5 - Pass Details

Date: 19 August 2019
Orbit: 405 x 1332 km, 68.9° (Epoch: 20 September)

Event Time Altitude Azimuth Distance (km) Brightness Sun altitude
Rises 20:02:32 0° 341° (NNW) 2,405 8.1 -18.1°
Reaches altitude 10° 20:04:34 10° 349° (N) 1,593 6.8 -18.4°
Maximum altitude 20:07:49 38° 60° (ENE) 776 4.4 -18.8°
Enters shadow 20:08:11 37° 75° (ENE) 801 4.3 -18.9°
